Voltar ao catálogo

KUIPER-00119

AtivoComunicaçõesLEO
NORAD 65155·PAYLOAD·🇺🇸 United States

Lançado Aug 11, 2025 de Cape Canaveral Space Force Station

Loading…

Próximas Passagens (próximas 24 horas)

TLE

AtualizadoSource: CelesTrak SupGP

Época: Sep 14, 2026, 19:33 UTC

1 65155C 25171Z   26257.81523148  .00005881  00000+0  77001-3 0  2578
2 65155  51.9010  46.8679 0000644 114.5314  23.6278 14.79917142    17

Acompanhe KUIPER-00119 em tempo real com AllMySat

Download on the App Store